Location: Stockholm
(59.3293°N, 18.0686°E)
Time: 22:43:12
(UTC+02:00)

ISS - Pass Details

Date: 27 March 2019
Orbit: 408 x 410 km, 51.6° (Epoch: 18 April)

Event Time Altitude Azimuth Distance (km) Brightness Sun altitude
Rises 20:09:51 0° 244° (WSW) 2,337 0.5 -14.2°
Reaches altitude 10° 20:12:14 10° 229° (SW) 1,476 -0.8 -14.5°
Maximum altitude 20:14:50 22° 177° (S) 966 -2.3 -14.8°
Enters shadow 20:15:01 21° 171° (S) 969 -2.3 -14.8°
